,,Stat5,,Stat1,,Stat2,,Stat3,,Stat4,,Wind1,,Wind1,
time,status,PA1M_AVG,status,PR1M_SUM,status,RH1M_AVG,status,SR1M_AVG,status,TA1M_AVG,status,W1dAve1m,status,W1sAve1m,
2002-08-06, 10:06:00,VALID,918.946,VALID,0,VALID,59.8239,VALID,639.091,VALID,25.5117,VALID,313,VALID,0.80625,
2002-08-06, 10:07:00,VALID,918.955,VALID,0,VALID,61.2023,VALID,639.872,VALID,25.4726,VALID,20,VALID,1.39885,
2002-08-06, 10:08:00,VALID,918.921,VALID,0,VALID,62.0759,VALID,642.945,VALID,25.4503,VALID,3,VALID,1.58213,
2002-08-06, 10:09:00,VALID,918.946,VALID,0,VALID,62.2654,VALID,567.72,VALID,25.5146,VALID,343,VALID,0.966992,
2002-08-06, 10:10:00,VALID,918.931,VALID,0,VALID,62.259,VALID,543.624,VALID,25.6048,VALID,359,VALID,0.710304,
2002-08-06, 10:11:00,VALID,918.937,VALID,0,VALID,60.6415,VALID,535.915,VALID,25.6213,VALID,344,VALID,1.0127,
2002-08-06, 10:12:00,VALID,918.934,VALID,0,VALID,61.9907,VALID,650.315,VALID,25.5208,VALID,11,VALID,1.85004,
2002-08-06, 10:13:00,VALID,918.921,VALID,0,VALID,62.6545,VALID,786.705,VALID,25.5893,VALID,24,VALID,1.69091,
2002-08-06, 10:14:00,VALID,918.924,VALID,0,VALID,63.0881,VALID,629.615,VALID,25.7899,VALID,9,VALID,0.967928,
2002-08-06, 10:15:00,VALID,918.943,VALID,0,VALID,61.9488,VALID,400.034,VALID,25.9335,VALID,336,VALID,1.0181,
2002-08-06, 10:16:00,VALID,918.931,VALID,0,VALID,60.9569,VALID,438.275,VALID,25.8041,VALID,4,VALID,0.734169,
2002-08-06, 10:17:00,VALID,918.931,VALID,0,VALID,61.2901,VALID,461.505,VALID,25.9286,VALID,27,VALID,0.941612,
2002-08-06, 10:18:00,VALID,918.933,VALID,0,VALID,60.9048,VALID,595.959,VALID,26.058,VALID,6,VALID,0.936198,
2002-08-06, 10:19:00,VALID,918.932,VALID,0,VALID,61.1057,VALID,609.238,VALID,26.0625,VALID,313,VALID,0.546258,
2002-08-06, 10:20:00,VALID,918.93,VALID,0,VALID,61.5787,VALID,527.968,VALID,26.0952,VALID,357,VALID,0.926116,
2002-08-06, 10:21:00,VALID,918.951,VALID,0,VALID,60.0439,VALID,385.855,VALID,26.0283,VALID,329,VALID,0.695703,
2002-08-06, 10:22:00,VALID,918.97,VALID,0,VALID,60.6822,VALID,351.571,VALID,25.795,VALID,8,VALID,1.44383,
2002-08-06, 10:23:00,VALID,918.968,VALID,0,VALID,61.8,VALID,360.622,VALID,25.5521,VALID,12,VALID,1.40885,
2002-08-06, 10:24:00,VALID,918.967,VALID,0,VALID,62.9406,VALID,343.369,VALID,25.3095,VALID,357,VALID,1.24937,
2002-08-06, 10:25:00,VALID,918.972,VALID,0,VALID,64.0406,VALID,337.12,VALID,25.1672,VALID,14,VALID,1.42695,
2002-08-06, 10:26:00,VALID,918.961,VALID,0,VALID,64.1308,VALID,407.88,VALID,25.1343,VALID,18,VALID,0.998561,
2002-08-06, 10:27:00,VALID,918.946,VALID,0,VALID,63.5256,VALID,705.672,VALID,25.1443,VALID,317,VALID,0.517795,
2002-08-06, 10:28:00,VALID,918.913,VALID,0,VALID,62.0874,VALID,639.94,VALID,25.2067,VALID,336,VALID,0.496311,
2002-08-06, 10:29:00,VALID,918.88,VALID,0,VALID,62.0098,VALID,417.185,VALID,25.403,VALID,28,VALID,0.884252,
2002-08-06, 10:30:00,VALID,918.851,VALID,0,VALID,60.3402,VALID,359.807,VALID,25.5042,VALID,19,VALID,1.1671,
2002-08-06, 10:31:00,VALID,918.833,VALID,0,VALID,60.4088,VALID,388.861,VALID,25.3745,VALID,221,VALID,0.512576,
2002-08-06, 10:32:00,VALID,918.832,VALID,0,VALID,60.2753,VALID,485.04,VALID,25.3878,VALID,81,VALID,0.401605,
2002-08-06, 10:33:00,VALID,918.821,VALID,0,VALID,62.6761,VALID,504.161,VALID,25.4907,VALID,5,VALID,1.0479,
2002-08-06, 10:34:00,VALID,918.82,VALID,0,VALID,61.5533,VALID,516.947,VALID,25.4619,VALID,23,VALID,1.3639,
2002-08-06, 10:35:00,VALID,918.812,VALID,0,VALID,63.0411,VALID,691.154,VALID,25.5699,VALID,26,VALID,1.33984,
2002-08-06, 10:36:00,VALID,918.789,VALID,0,VALID,62.8109,VALID,868.128,VALID,25.8015,VALID,11,VALID,1.228,
2002-08-06, 10:37:00,VALID,918.787,VALID,0,VALID,61.5406,VALID,929.751,VALID,26.0768,VALID,32,VALID,0.810033,
2002-08-06, 10:38:00,VALID,918.737,VALID,0,VALID,60.887,VALID,932.961,VALID,26.3547,VALID,17,VALID,1.52724,
2002-08-06, 10:39:00,VALID,918.702,VALID,0,VALID,59.5988,VALID,915.844,VALID,26.6779,VALID,17,VALID,1.34744,
2002-08-06, 10:40:00,VALID,918.696,VALID,0,VALID,56.9425,VALID,886.926,VALID,26.8626,VALID,24,VALID,0.96852,
2002-08-06, 10:41:00,VALID,918.679,VALID,0,VALID,56.8687,VALID,744.474,VALID,26.9338,VALID,18,VALID,1.30098,
2002-08-06, 10:42:00,VALID,918.682,VALID,0,VALID,56.4122,VALID,722.823,VALID,26.73,VALID,29,VALID,1.4371,
2002-08-06, 10:43:00,VALID,918.674,VALID,0,VALID,58.8702,VALID,751.809,VALID,26.5578,VALID,22,VALID,1.9223,
2002-08-06, 10:44:00,VALID,918.686,VALID,0,VALID,58.7227,VALID,628.291,VALID,26.5708,VALID,16,VALID,2.01439,
2002-08-06, 10:45:00,VALID,918.667,VALID,0,VALID,57.2222,VALID,552.794,VALID,26.4773,VALID,9,VALID,2.21723,
2002-08-06, 10:46:00,VALID,918.674,VALID,0,VALID,58.3412,VALID,621.142,VALID,26.0399,VALID,333,VALID,1.00267,
2002-08-06, 10:47:00,VALID,918.672,VALID,0,VALID,60.3414,VALID,620.683,VALID,25.9755,VALID,2,VALID,1.80448,
2002-08-06, 10:48:00,VALID,918.671,VALID,0,VALID,60.4699,VALID,535.83,VALID,25.8982,VALID,357,VALID,1.02951,
2002-08-06, 10:49:00,VALID,918.671,VALID,0,VALID,61.0001,VALID,636.255,VALID,25.7391,VALID,342,VALID,1.15308,
2002-08-06, 10:50:00,VALID,918.671,VALID,0,VALID,61.3486,VALID,656.292,VALID,25.8788,VALID,7,VALID,0.627902,
2002-08-06, 10:51:00,VALID,918.654,VALID,0,VALID,58.841,VALID,691.001,VALID,26.1133,VALID,78,VALID,1.18771,
2002-08-06, 10:52:00,VALID,918.617,VALID,0,VALID,59.4208,VALID,694.873,VALID,26.0311,VALID,351,VALID,1.38281,
2002-08-06, 10:53:00,VALID,918.604,VALID,0,VALID,60.3847,VALID,628.528,VALID,25.9089,VALID,1,VALID,1.59535,
2002-08-06, 10:54:00,VALID,918.603,VALID,0,VALID,60.9989,VALID,608.44,VALID,25.9247,VALID,15,VALID,1.54624,
2002-08-06, 10:55:00,VALID,918.596,VALID,0,VALID,61.4414,VALID,640.398,VALID,25.9868,VALID,25,VALID,1.81328,
2002-08-06, 10:56:00,VALID,918.596,VALID,0,VALID,60.742,VALID,654.271,VALID,25.731,VALID,11,VALID,2.2428,
2002-08-06, 10:57:00,VALID,918.593,VALID,0,VALID,62.3887,VALID,547.071,VALID,25.708,VALID,19,VALID,1.86936,
2002-08-06, 10:58:00,VALID,918.603,VALID,0,VALID,61.936,VALID,518.17,VALID,25.7886,VALID,12,VALID,2.30924,
2002-08-06, 10:59:00,VALID,918.597,VALID,0,VALID,60.5296,VALID,521.498,VALID,25.8471,VALID,11,VALID,1.7794,
2002-08-06, 11:00:00,VALID,918.587,VALID,0,VALID,60.8234,VALID,590.254,VALID,25.7666,VALID,344,VALID,0.987847,
2002-08-06, 11:01:00,VALID,918.549,VALID,0,VALID,60.4457,VALID,580.252,VALID,25.7905,VALID,337,VALID,1.758,
2002-08-06, 11:02:00,VALID,918.544,VALID,0,VALID,60.4254,VALID,544.949,VALID,25.5741,VALID,351,VALID,1.57791,
2002-08-06, 11:03:00,VALID,918.497,VALID,0,VALID,61.0179,VALID,472.814,VALID,25.4583,VALID,11,VALID,2.37623,
2002-08-06, 11:04:00,VALID,918.46,VALID,0,VALID,62.5502,VALID,586.076,VALID,25.3542,VALID,26,VALID,1.97019,
2002-08-06, 11:05:00,VALID,918.465,VALID,0,VALID,62.8376,VALID,523.536,VALID,25.403,VALID,321,VALID,0.948242,
2002-08-06, 11:06:00,VALID,918.466,VALID,0,VALID,62.9902,VALID,451.724,VALID,25.5159,VALID,17,VALID,0.754729,
2002-08-06, 11:07:00,VALID,918.47,VALID,0,VALID,60.9836,VALID,414.078,VALID,25.5615,VALID,345,VALID,0.785773,
2002-08-06, 11:08:00,VALID,918.488,VALID,0,VALID,61.1553,VALID,396.265,VALID,25.4586,VALID,347,VALID,0.33636,
2002-08-06, 11:09:00,VALID,918.502,VALID,0,VALID,62.8173,VALID,399.933,VALID,25.5486,VALID,14,VALID,1.0408,
2002-08-06, 11:10:00,VALID,918.504,VALID,0,VALID,63.1898,VALID,399.729,VALID,25.6553,VALID,17,VALID,0.780331,
2002-08-06, 11:11:00,VALID,918.534,VALID,0,VALID,62.8376,VALID,416.523,VALID,25.6356,VALID,24,VALID,1.19687,
2002-08-06, 11:12:00,VALID,918.514,VALID,0,VALID,63.8002,VALID,460.639,VALID,25.6754,VALID,26,VALID,1.09375,
2002-08-06, 11:13:00,VALID,918.517,VALID,0,VALID,63.5001,VALID,569.18,VALID,25.8047,VALID,16,VALID,1.18285,
2002-08-06, 11:14:00,VALID,918.496,VALID,0,VALID,63.3666,VALID,685.414,VALID,25.8882,VALID,357,VALID,1.40255,
2002-08-06, 11:15:00,VALID,918.485,VALID,0,VALID,61.4109,VALID,832.112,VALID,25.7821,VALID,1,VALID,1.84489,
2002-08-06, 11:16:00,VALID,918.48,VALID,0,VALID,61.9793,VALID,899.271,VALID,25.6961,VALID,10,VALID,2.9081,
2002-08-06, 11:17:00,VALID,918.446,VALID,0,VALID,60.7878,VALID,924.402,VALID,25.676,VALID,14,VALID,1.52447,
2002-08-06, 11:18:00,VALID,918.441,VALID,0,VALID,62.5134,VALID,870.217,VALID,25.8549,VALID,11,VALID,1.84961,
2002-08-06, 11:19:00,VALID,918.419,VALID,0,VALID,60.433,VALID,926.474,VALID,25.947,VALID,298,VALID,0.845228,
2002-08-06, 11:20:00,VALID,918.434,VALID,0,VALID,60.6848,VALID,927.272,VALID,26.0939,VALID,259,VALID,0.747321,
2002-08-06, 11:21:00,VALID,918.4,VALID,0,VALID,58.5396,VALID,916.133,VALID,26.2265,VALID,214,VALID,0.569696,
2002-08-06, 11:22:00,VALID,918.385,VALID,0,VALID,58.7685,VALID,834.115,VALID,26.6044,VALID,175,VALID,0.423986,
2002-08-06, 11:23:00,VALID,918.372,VALID,0,VALID,58.5459,VALID,813.959,VALID,26.9703,VALID,88,VALID,0.825921,
2002-08-06, 11:24:00,VALID,918.351,VALID,0,VALID,58.607,VALID,825.438,VALID,27.1447,VALID,117,VALID,0.50549,
2002-08-06, 11:25:00,VALID,918.371,VALID,0,VALID,56.0689,VALID,824.742,VALID,27.0379,VALID,261,VALID,1.24336,
2002-08-06, 11:26:00,VALID,918.384,VALID,0,VALID,56.4033,VALID,806.759,VALID,26.6432,VALID,249,VALID,1.21484,
2002-08-06, 11:27:00,VALID,918.387,VALID,0,VALID,57.1841,VALID,807.065,VALID,26.3203,VALID,223,VALID,0.999349,
2002-08-06, 11:28:00,VALID,918.385,VALID,0,VALID,59.9943,VALID,803.55,VALID,26.2521,VALID,238,VALID,0.998698,
2002-08-06, 11:29:00,VALID,918.375,VALID,0,VALID,59.2364,VALID,751.572,VALID,26.43,VALID,194,VALID,0.566201,
2002-08-06, 11:30:00,VALID,918.332,VALID,0,VALID,59.5085,VALID,704.518,VALID,26.618,VALID,226,VALID,0.847222,
2002-08-06, 11:31:00,VALID,918.303,VALID,0,VALID,61.3804,VALID,779.879,VALID,26.7293,VALID,360,VALID,0.925495,
2002-08-06, 11:32:00,VALID,918.299,VALID,0,VALID,61.1502,VALID,693.718,VALID,27.0396,VALID,50,VALID,0.931166,
2002-08-06, 11:33:00,VALID,918.266,VALID,0,VALID,59.9956,VALID,622.636,VALID,27.1917,VALID,11,VALID,1.25863,
2002-08-06, 11:34:00,VALID,918.269,VALID,0,VALID,58.1543,VALID,634.557,VALID,27.1651,VALID,300,VALID,0.582237,
2002-08-06, 11:35:00,VALID,918.274,VALID,0,VALID,55.77,VALID,601.801,VALID,27.2561,VALID,185,VALID,0.233398,
2002-08-06, 11:36:00,VALID,918.276,VALID,0,VALID,55.8196,VALID,647.581,VALID,27.3628,VALID,284,VALID,0.374383,
2002-08-06, 11:37:00,VALID,918.265,VALID,0,VALID,56.4427,VALID,545.339,VALID,27.292,VALID,326,VALID,0.643914,
2002-08-06, 11:38:00,VALID,918.257,VALID,0,VALID,57.6062,VALID,570.25,VALID,27.3729,VALID,31,VALID,1.25908,
2002-08-06, 11:39:00,VALID,918.235,VALID,0,VALID,57.708,VALID,627.34,VALID,27.3794,VALID,1,VALID,1.0957,
2002-08-06, 11:40:00,VALID,918.204,VALID,0,VALID,57.5007,VALID,585.21,VALID,27.3693,VALID,357,VALID,0.984835,
2002-08-06, 11:41:00,VALID,918.167,VALID,0,VALID,56.6563,VALID,574.648,VALID,27.3819,VALID,18,VALID,1.05742,
2002-08-06, 11:42:00,VALID,918.133,VALID,0,VALID,57.708,VALID,622.636,VALID,27.347,VALID,287,VALID,0.875401,
2002-08-06, 11:43:00,VALID,918.141,VALID,0,VALID,55.6022,VALID,583.58,VALID,27.2327,VALID,293,VALID,0.461782,
2002-08-06, 11:44:00,VALID,918.122,VALID,0,VALID,55.2093,VALID,639.651,VALID,27.2227,VALID,358,VALID,0.782895,
2002-08-06, 11:45:00,VALID,918.129,VALID,0,VALID,57.6533,VALID,603.227,VALID,27.1288,VALID,21,VALID,1.30164,
2002-08-06, 11:46:00,VALID,918.117,VALID,0,VALID,56.9119,VALID,583.58,VALID,27.1263,VALID,32,VALID,0.847039,
2002-08-06, 11:47:00,VALID,918.13,VALID,0,VALID,56.5826,VALID,598.303,VALID,27.1716,VALID,17,VALID,1.09581,
2002-08-06, 11:48:00,VALID,918.142,VALID,0,VALID,57.5299,VALID,617.287,VALID,27.1719,VALID,328,VALID,0.67296,
2002-08-06, 11:49:00,VALID,918.167,VALID,0,VALID,57.2057,VALID,543.964,VALID,27.2097,VALID,301,VALID,0.301943,
2002-08-06, 11:50:00,VALID,918.164,VALID,0,VALID,57.6431,VALID,599.05,VALID,27.4366,VALID,357,VALID,0.508482,
2002-08-06, 11:51:00,VALID,918.176,VALID,0,VALID,54.6345,VALID,579.607,VALID,27.5786,VALID,356,VALID,0.377056,
2002-08-06, 11:52:00,VALID,918.178,VALID,0,VALID,55.6797,VALID,545.017,VALID,27.7077,VALID,27,VALID,0.381757,
2002-08-06, 11:53:00,VALID,918.169,VALID,0,VALID,55.3034,VALID,484.378,VALID,27.8077,VALID,45,VALID,0.342147,
2002-08-06, 11:54:00,VALID,918.18,VALID,0,VALID,56.1668,VALID,484.786,VALID,27.8627,VALID,15,VALID,0.456503,
2002-08-06, 11:55:00,VALID,918.167,VALID,0,VALID,57.0264,VALID,591.205,VALID,27.8239,VALID,16,VALID,0.879687,
2002-08-06, 11:56:00,VALID,918.16,VALID,0,VALID,56.0129,VALID,584.361,VALID,27.5204,VALID,205,VALID,0.321546,
2002-08-06, 11:57:00,VALID,918.158,VALID,0,VALID,56.7161,VALID,662.643,VALID,27.474,VALID,190,VALID,0.554905,
2002-08-06, 11:58:00,VALID,918.142,VALID,0,VALID,56.636,VALID,733.708,VALID,27.3546,VALID,324,VALID,0.522786,
2002-08-06, 11:59:00,VALID,918.131,VALID,0,VALID,58.9236,VALID,801.071,VALID,27.2385,VALID,16,VALID,0.996505,
2002-08-06, 12:00:00,VALID,918.123,VALID,0,VALID,60.5462,VALID,739.651,VALID,27.264,VALID,326,VALID,0.763889,
2002-08-06, 12:01:00,VALID,918.123,VALID,0,VALID,58.5854,VALID,734.489,VALID,27.4585,VALID,290,VALID,0.665587,
2002-08-06, 12:02:00,VALID,918.121,VALID,0,VALID,56.3817,VALID,780.813,VALID,27.2766,VALID,5,VALID,0.673775,
2002-08-06, 12:03:00,VALID,918.092,VALID,0,VALID,56.9908,VALID,814.927,VALID,27.2353,VALID,13,VALID,1.17352,
2002-08-06, 12:04:00,VALID,918.07,VALID,0,VALID,59.0203,VALID,936.68,VALID,27.1116,VALID,359,VALID,1.21423,
2002-08-06, 12:05:00,VALID,918.069,VALID,0,VALID,61.1133,VALID,906.624,VALID,27.2065,VALID,351,VALID,1.61133,
2002-08-06, 12:06:00,VALID,918.066,VALID,0,VALID,58.5256,VALID,880.269,VALID,27.4298,VALID,14,VALID,1.61822,
2002-08-06, 12:07:00,VALID,918.089,VALID,0,VALID,55.7688,VALID,937.664,VALID,27.3708,VALID,327,VALID,1.03701,
2002-08-06, 12:08:00,VALID,918.101,VALID,0,VALID,56.9348,VALID,905.452,VALID,27.2709,VALID,21,VALID,1.30976,
2002-08-06, 12:09:00,VALID,918.114,VALID,0,VALID,57.3557,VALID,898.846,VALID,27.4481,VALID,7,VALID,0.963759,
2002-08-06, 12:10:00,VALID,918.11,VALID,0,VALID,55.6721,VALID,923.91,VALID,27.5905,VALID,12,VALID,1.38902,
2002-08-06, 12:11:00,VALID,918.079,VALID,0,VALID,57.4536,VALID,901.58,VALID,27.5646,VALID,10,VALID,1.60801,
2002-08-06, 12:12:00,VALID,918.104,VALID,0,VALID,56.3677,VALID,783.682,VALID,27.6905,VALID,11,VALID,1.66506,
2002-08-06, 12:13:00,VALID,918.093,VALID,0,VALID,56.2329,VALID,725.149,VALID,27.3874,VALID,24,VALID,2.34079,
2002-08-06, 12:14:00,VALID,918.11,VALID,0,VALID,57.4142,VALID,619.783,VALID,27.3029,VALID,18,VALID,2.53372,
2002-08-06, 12:15:00,VALID,918.101,VALID,0,VALID,58.5332,VALID,542.826,VALID,27.0663,VALID,12,VALID,2.38453,
2002-08-06, 12:16:00,VALID,918.106,VALID,0,VALID,58.0831,VALID,659.705,VALID,27.0728,VALID,130,VALID,0.73088,
2002-08-06, 12:17:00,VALID,918.09,VALID,0,VALID,57.4346,VALID,767.126,VALID,27.1864,VALID,21,VALID,1.33861,
2002-08-06, 12:18:00,VALID,918.077,VALID,0,VALID,57.0429,VALID,760.52,VALID,27.2921,VALID,276,VALID,0.682726,
2002-08-06, 12:19:00,VALID,918.066,VALID,0,VALID,57.0086,VALID,717.508,VALID,27.4122,VALID,339,VALID,1.21199,
2002-08-06, 12:20:00,VALID,918.049,VALID,0,VALID,53.8575,VALID,701.206,VALID,27.2795,VALID,274,VALID,0.564286,
2002-08-06, 12:21:00,VALID,918.039,VALID,0,VALID,55.9977,VALID,763.22,VALID,27.1023,VALID,337,VALID,0.771998,
2002-08-06, 12:22:00,VALID,918.015,VALID,0,VALID,56.7212,VALID,836.798,VALID,27.1893,VALID,309,VALID,0.736064,
2002-08-06, 12:23:00,VALID,917.994,VALID,0,VALID,57.6622,VALID,919.767,VALID,27.3345,VALID,15,VALID,1.11538,
2002-08-06, 12:24:00,VALID,917.987,VALID,0,VALID,55.8616,VALID,971.847,VALID,27.5575,VALID,25,VALID,1.78294,
2002-08-06, 12:25:00,VALID,917.965,VALID,0,VALID,56.6703,VALID,984.141,VALID,27.739,VALID,31,VALID,0.917969,
2002-08-06, 12:26:00,VALID,917.96,VALID,0,VALID,57.1027,VALID,992.75,VALID,27.8911,VALID,50,VALID,0.58162,
2002-08-06, 12:27:00,VALID,917.934,VALID,0,VALID,55.1571,VALID,993.905,VALID,28.0303,VALID,104,VALID,1.13997,
2002-08-06, 12:28:00,VALID,917.905,VALID,0,VALID,54.9931,VALID,998.779,VALID,28.1317,VALID,19,VALID,1.68989,
2002-08-06, 12:29:00,VALID,917.864,VALID,0,VALID,55.5526,VALID,996.35,VALID,28.0918,VALID,9,VALID,1.89371,
2002-08-06, 12:30:00,VALID,917.843,VALID,0,VALID,55.915,VALID,984.43,VALID,28.1119,VALID,288,VALID,0.623264,
2002-08-06, 12:31:00,VALID,917.816,VALID,0,VALID,56.7746,VALID,969.198,VALID,28.2996,VALID,28,VALID,1.51715,
2002-08-06, 12:32:00,VALID,917.77,VALID,0,VALID,56.5546,VALID,939.346,VALID,28.4877,VALID,17,VALID,2.29624,
2002-08-06, 12:33:00,VALID,917.761,VALID,0,VALID,54.8303,VALID,945.408,VALID,28.6395,VALID,14,VALID,1.62726,
2002-08-06, 12:34:00,VALID,917.753,VALID,0,VALID,51.6004,VALID,910.801,VALID,28.5262,VALID,359,VALID,1.89021,
2002-08-06, 12:35:00,VALID,917.732,VALID,0,VALID,56.313,VALID,956.123,VALID,28.4579,VALID,16,VALID,2.67246,
2002-08-06, 12:36:00,VALID,917.73,VALID,0,VALID,56.2405,VALID,880.83,VALID,28.5712,VALID,14,VALID,0.993215,
2002-08-06, 12:37:00,VALID,917.757,VALID,0,VALID,54.206,VALID,322.109,VALID,28.3313,VALID,284,VALID,1.41077,
2002-08-06, 12:38:00,VALID,917.756,VALID,0,VALID,56.3257,VALID,249.109,VALID,27.7843,VALID,324,VALID,1.08763,
2002-08-06, 12:39:00,VALID,917.772,VALID,0,VALID,56.1769,VALID,357.871,VALID,27.419,VALID,247,VALID,0.90191,
2002-08-06, 12:40:00,VALID,917.754,VALID,0,VALID,57.4816,VALID,411.938,VALID,27.167,VALID,222,VALID,0.70818,
2002-08-06, 12:41:00,VALID,917.742,VALID,0,VALID,58.3705,VALID,576.143,VALID,27.0375,VALID,51,VALID,1.08516,
2002-08-06, 12:42:00,VALID,917.723,VALID,0,VALID,59.8735,VALID,772.95,VALID,26.9333,VALID,81,VALID,0.628205,
2002-08-06, 12:43:00,VALID,917.721,VALID,0,VALID,60.4801,VALID,485.584,VALID,26.9977,VALID,123,VALID,0.214738,
2002-08-06, 12:44:00,VALID,917.713,VALID,0,VALID,60.7891,VALID,520.513,VALID,27.1659,VALID,82,VALID,0.813322,
2002-08-06, 12:45:00,VALID,917.699,VALID,0,VALID,58.4302,VALID,838.496,VALID,27.2087,VALID,41,VALID,1.10061,
2002-08-06, 12:46:00,VALID,917.693,VALID,0,VALID,57.6228,VALID,921.635,VALID,27.1792,VALID,231,VALID,0.51727,
2002-08-06, 12:47:00,VALID,917.71,VALID,0,VALID,57.3837,VALID,853.304,VALID,27.3734,VALID,324,VALID,0.687294,
2002-08-06, 12:48:00,VALID,917.707,VALID,0,VALID,55.8832,VALID,860.605,VALID,27.5359,VALID,193,VALID,0.570964,
2002-08-06, 12:49:00,VALID,917.691,VALID,0,VALID,56.8738,VALID,926.542,VALID,27.7649,VALID,215,VALID,0.706715,
2002-08-06, 12:50:00,VALID,917.662,VALID,0,VALID,58.7481,VALID,934.387,VALID,27.9879,VALID,38,VALID,0.603125,
2002-08-06, 12:51:00,VALID,917.65,VALID,0,VALID,56.7059,VALID,886.518,VALID,28.3903,VALID,7,VALID,0.401316,
2002-08-06, 12:52:00,VALID,917.64,VALID,0,VALID,55.3466,VALID,856.683,VALID,28.7154,VALID,99,VALID,1.00042,
2002-08-06, 12:53:01,VALID,917.629,VALID,0,VALID,56.3944,VALID,899.492,VALID,28.5899,VALID,24,VALID,1.39403,
2002-08-06, 12:54:00,VALID,917.641,VALID,0,VALID,57.0149,VALID,1012.36,VALID,28.3378,VALID,319,VALID,0.938767,
2002-08-06, 12:55:00,VALID,917.659,VALID,0,VALID,56.271,VALID,987.469,VALID,28.341,VALID,197,VALID,1.01426,
2002-08-06, 12:56:00,VALID,917.687,VALID,0,VALID,56.3245,VALID,926.576,VALID,28.1766,VALID,316,VALID,1.31188,
2002-08-06, 12:57:00,VALID,917.692,VALID,0,VALID,56.4402,VALID,795.756,VALID,27.9627,VALID,347,VALID,0.726997,
2002-08-06, 12:58:01,VALID,917.692,VALID,0,VALID,58.5625,VALID,676.465,VALID,28.1698,VALID,18,VALID,1.77973,
2002-08-06, 12:59:00,VALID,917.715,VALID,0,VALID,56.4389,VALID,614.434,VALID,28.3281,VALID,242,VALID,0.809005,
2002-08-06, 13:00:00,VALID,917.718,VALID,0,VALID,55.2423,VALID,548.362,VALID,28.4349,VALID,191,VALID,0.842014,
2002-08-06, 13:01:00,VALID,917.708,VALID,0,VALID,57.8046,VALID,536.323,VALID,28.3906,VALID,150,VALID,0.609756,
2002-08-06, 13:02:00,VALID,917.715,VALID,0,VALID,57.0645,VALID,737.002,VALID,28.3971,VALID,11,VALID,1.56334,
2002-08-06, 13:03:00,VALID,917.713,VALID,0,VALID,55.3453,VALID,697.08,VALID,28.3773,VALID,12,VALID,2.02632,
2002-08-06, 13:04:00,VALID,917.691,VALID,0,VALID,56.8814,VALID,518.578,VALID,28.0893,VALID,339,VALID,1.52282,
2002-08-06, 13:05:00,VALID,917.706,VALID,0,VALID,56.7314,VALID,441.417,VALID,27.7233,VALID,302,VALID,1.39258,
2002-08-06, 13:06:00,VALID,917.666,VALID,0,VALID,58.7634,VALID,348.022,VALID,27.3551,VALID,249,VALID,0.884046,
2002-08-06, 13:07:01,VALID,917.618,VALID,0,VALID,60.5513,VALID,354.254,VALID,27.3904,VALID,2,VALID,0.915502,
2002-08-06, 13:08:00,VALID,917.616,VALID,0,VALID,60.4928,VALID,464.205,VALID,27.4839,VALID,92,VALID,0.434333,
2002-08-06, 13:09:00,VALID,917.59,VALID,0,VALID,61.0396,VALID,743.149,VALID,27.6269,VALID,92,VALID,0.64822,
2002-08-06, 13:10:00,VALID,917.553,VALID,0,VALID,59.197,VALID,875.718,VALID,27.7858,VALID,261,VALID,0.798713,
2002-08-06, 13:11:00,VALID,917.54,VALID,0,VALID,57.8605,VALID,909.086,VALID,27.6233,VALID,240,VALID,1.56074,
2002-08-06, 13:12:00,VALID,917.502,VALID,0,VALID,59.7018,VALID,862.915,VALID,27.2124,VALID,253,VALID,2.57592,
2002-08-06, 13:13:00,VALID,917.465,VALID,0,VALID,60.6975,VALID,777.892,VALID,27.0927,VALID,241,VALID,0.684755,
2002-08-06, 13:14:00,VALID,917.458,VALID,0,VALID,62.755,VALID,789.184,VALID,27.4745,VALID,338,VALID,0.703125,
2002-08-06, 13:15:00,VALID,917.44,VALID,0,VALID,60.6072,VALID,859.858,VALID,27.957,VALID,10,VALID,1.04935,
2002-08-06, 13:16:00,VALID,917.399,VALID,0,VALID,58.2153,VALID,816.795,VALID,28.19,VALID,279,VALID,0.650288,
2002-08-06, 13:17:00,VALID,917.391,VALID,0,VALID,59.0457,VALID,728.63,VALID,28.4191,VALID,19,VALID,1.41653,
2002-08-06, 13:18:00,VALID,917.367,VALID,0,VALID,57.8008,VALID,727.051,VALID,28.6521,VALID,277,VALID,1.08876,
2002-08-06, 13:19:00,VALID,917.369,VALID,0,VALID,56.4681,VALID,816.099,VALID,28.6298,VALID,153,VALID,0.507179,
2002-08-06, 13:20:00,VALID,917.332,VALID,0,VALID,57.1332,VALID,780.897,VALID,28.769,VALID,38,VALID,0.912723,
2002-08-06, 13:21:00,VALID,917.309,VALID,0,VALID,56.8051,VALID,748.124,VALID,28.7787,VALID,281,VALID,1.11883,
2002-08-06, 13:22:00,VALID,917.31,VALID,0,VALID,58.298,VALID,720.734,VALID,28.5708,VALID,319,VALID,0.993032,
2002-08-06, 13:23:01,VALID,917.28,VALID,0,VALID,57.3951,VALID,713.127,VALID,28.4903,VALID,348,VALID,1.00821,
2002-08-06, 13:24:00,VALID,917.233,VALID,0,VALID,56.5584,VALID,794.635,VALID,28.5838,VALID,37,VALID,0.637669,
2002-08-06, 13:25:00,VALID,917.229,VALID,0,VALID,56.959,VALID,713.501,VALID,28.7057,VALID,31,VALID,0.983594,
2002-08-06, 13:26:00,VALID,917.18,VALID,0,VALID,58.6286,VALID,554.085,VALID,28.5241,VALID,357,VALID,0.763363,
2002-08-06, 13:27:00,VALID,917.16,VALID,0,VALID,59.0749,VALID,457.718,VALID,28.5179,VALID,22,VALID,1.65365,
2002-08-06, 13:28:01,VALID,917.139,VALID,0,VALID,57.2006,VALID,507.965,VALID,28.3565,VALID,15,VALID,2.71463,
2002-08-06, 13:29:00,VALID,917.149,VALID,0,VALID,58.2954,VALID,697.318,VALID,27.8746,VALID,24,VALID,2.33594,
2002-08-06, 13:30:00,VALID,917.161,VALID,0,VALID,60.4177,VALID,710.087,VALID,27.6513,VALID,11,VALID,1.71528,
2002-08-06, 13:31:01,VALID,917.167,VALID,0,VALID,60.213,VALID,639.192,VALID,27.7639,VALID,22,VALID,1.75305,
2002-08-06, 13:32:00,VALID,917.147,VALID,0,VALID,59.7552,VALID,607.914,VALID,27.8315,VALID,14,VALID,2.32622,
2002-08-06, 13:33:00,VALID,917.135,VALID,0,VALID,59.6599,VALID,696.384,VALID,27.8156,VALID,9,VALID,1.82319,
2002-08-06, 13:34:00,VALID,917.122,VALID,0,VALID,59.1334,VALID,753.932,VALID,27.862,VALID,348,VALID,0.939967,
2002-08-06, 13:35:00,VALID,917.131,VALID,0,VALID,57.816,VALID,513.347,VALID,27.7995,VALID,42,VALID,0.745313,
2002-08-06, 13:36:00,VALID,917.135,VALID,0,VALID,59.1449,VALID,475.888,VALID,27.6643,VALID,18,VALID,0.699013,
2002-08-06, 13:37:01,VALID,917.124,VALID,0,VALID,60.2448,VALID,488.284,VALID,27.6413,VALID,3,VALID,0.624589,
2002-08-06, 13:38:00,VALID,917.101,VALID,0,VALID,59.0012,VALID,549.33,VALID,27.725,VALID,4,VALID,1.15372,
2002-08-06, 13:39:00,VALID,917.116,VALID,0,VALID,59.8163,VALID,615.131,VALID,27.5953,VALID,8,VALID,1.78928,
2002-08-06, 13:40:00,VALID,917.103,VALID,0,VALID,58.2865,VALID,585.499,VALID,27.359,VALID,331,VALID,1.05928,
2002-08-06, 13:41:00,VALID,917.13,VALID,0,VALID,59.1372,VALID,436.39,VALID,27.3206,VALID,359,VALID,0.798437,